When you browse on this site, cookies collect data to enhance your experience and personalize the content and advertising you see.
Visit our Privacy Policy to learn more. By continuing to use the site, you agree to this use of cookies and data.
  • In Belgium
  • List of Countries
  • For 7 days
  • Water Temperature
  • Satellite Maps
  • Weather Map
  • Weather Widgets
  • user-avatar
    Login

    Hourly Weather Shkoder

    Today, 18 November, Sunday

    Time Temperature Precipitation Wind Pressure Humidity
    00:00 +3°C° 0.1 mm 5 mps 743 mmHg 69%
    01:00 +4°C° 0 mm 4 mps 743 mmHg 69%
    02:00 +4°C° 0 mm 4 mps 742 mmHg 70%
    03:00 +4°C° 0 mm 4 mps 742 mmHg 70%
    04:00 +3°C° 0 mm 4 mps 741 mmHg 71%
    05:00 +4°C° 0 mm 4 mps 741 mmHg 70%
    06:00 +4°C° 0 mm 4 mps 741 mmHg 70%
    07:00 +5°C° 0 mm 5 mps 741 mmHg 70%
    08:00 +5°C° 0 mm 4 mps 740 mmHg 67%
    09:00 +6°C° 0 mm 4 mps 740 mmHg 65%
    10:00 +7°C° 0 mm 4 mps 740 mmHg 63%
    11:00 +8°C° 0.2 mm 4 mps 739 mmHg 64%
    12:00 +8°C° 0.2 mm 4 mps 739 mmHg 65%
    13:00 +8°C° 0.2 mm 4 mps 738 mmHg 66%
    14:00 +7°C° 0.7 mm 4 mps 738 mmHg 70%
    15:00 +8°C° 0.7 mm 3 mps 737 mmHg 74%
    16:00 +7°C° 0.7 mm 3 mps 737 mmHg 79%
    17:00 +7°C° 0.4 mm 3 mps 736 mmHg 79%
    18:00 +7°C° 0.4 mm 3 mps 736 mmHg 80%
    19:00 +7°C° 0.4 mm 3 mps 736 mmHg 81%
    20:00 +6°C° 0.2 mm 2 mps 736 mmHg 82%
    21:00 +6°C° 0.2 mm 2 mps 736 mmHg 82%
    22:00 +6°C° 0.2 mm 2 mps 736 mmHg 83%
    23:00 +6°C° 0.2 mm 2 mps 736 mmHg 83%

    Tomorrow, 19 November, Monday

    Time Temperature Precipitation Wind Pressure Humidity
    00:00 +6°C° 0.2 mm 2 mps 736 mmHg 84%
    01:00 +6°C° 0.2 mm 2 mps 736 mmHg 84%
    02:00 +6°C° 0.1 mm 2 mps 736 mmHg 85%
    03:00 +5°C° 0.1 mm 2 mps 736 mmHg 85%
    04:00 +6°C° 0.1 mm 1 mps 736 mmHg 85%
    05:00 +5°C° 0 mm 2 mps 736 mmHg 85%
    06:00 +4°C° 0 mm 2 mps 736 mmHg 85%
    07:00 +4°C° 0 mm 2 mps 736 mmHg 85%
    08:00 +6°C° 0 mm 2 mps 736 mmHg 80%
    09:00 +8°C° 0 mm 2 mps 737 mmHg 75%
    10:00 +10°C° 0 mm 2 mps 737 mmHg 70%
    11:00 +10°C° 0 mm 2 mps 737 mmHg 67%
    12:00 +12°C° 0 mm 2 mps 737 mmHg 65%
    13:00 +13°C° 0 mm 2 mps 737 mmHg 62%
    14:00 +12°C° 0.1 mm 2 mps 737 mmHg 65%
    15:00 +10°C° 0.1 mm 2 mps 737 mmHg 68%
    16:00 +10°C° 0.1 mm 2 mps 737 mmHg 71%
    17:00 +10°C° 0.2 mm 2 mps 737 mmHg 73%
    18:00 +9°C° 0.2 mm 3 mps 737 mmHg 74%
    19:00 +9°C° 0.2 mm 3 mps 737 mmHg 76%
    20:00 +9°C° 0.4 mm 3 mps 737 mmHg 77%
    21:00 +8°C° 0.4 mm 4 mps 737 mmHg 78%
    22:00 +10°C° 0.4 mm 4 mps 736 mmHg 79%
    23:00 +8°C° 2.7 mm 4 mps 736 mmHg 83%

    Day after tomorrow, 20 November, Tuesday

    Time Temperature Precipitation Wind Pressure Humidity
    00:00 +8°C° 2.7 mm 4 mps 736 mmHg 86%
    01:00 +8°C° 2.7 mm 4 mps 736 mmHg 90%
    02:00 +8°C° 3 mm 4 mps 736 mmHg 90%
    03:00 +8°C° 3 mm 4 mps 735 mmHg 90%
    04:00 +8°C° 3 mm 4 mps 735 mmHg 90%
    05:00 +10°C° 4.1 mm 4 mps 735 mmHg 90%
    06:00 +10°C° 4.1 mm 4 mps 735 mmHg 91%
    07:00 +10°C° 4.1 mm 4 mps 735 mmHg 91%
    08:00 +10°C° 3.6 mm 4 mps 735 mmHg 91%
    09:00 +11°C° 3.6 mm 4 mps 735 mmHg 91%
    10:00 +10°C° 3.6 mm 5 mps 735 mmHg 90%
    11:00 +12°C° 2.6 mm 4 mps 735 mmHg 90%
    12:00 +12°C° 2.6 mm 4 mps 735 mmHg 90%
    13:00 +12°C° 2.6 mm 4 mps 734 mmHg 90%
    14:00 +12°C° 2.1 mm 4 mps 734 mmHg 90%
    15:00 +12°C° 2.1 mm 3 mps 734 mmHg 91%
    16:00 +13°C° 2.1 mm 3 mps 734 mmHg 92%
    17:00 +12°C° 1.1 mm 3 mps 735 mmHg 92%
    18:00 +12°C° 1.1 mm 3 mps 735 mmHg 92%
    19:00 +12°C° 1.1 mm 3 mps 735 mmHg 92%
    20:00 +12°C° 0.6 mm 3 mps 735 mmHg 92%
    21:00 +12°C° 0.6 mm 3 mps 735 mmHg 92%
    22:00 +12°C° 0.6 mm 3 mps 736 mmHg 91%
    23:00 +13°C° 0.5 mm 2 mps 735 mmHg 91%

    21 November, Wednesday

    Time Temperature Precipitation Wind Pressure Humidity
    00:00 +13°C° 0.5 mm 2 mps 735 mmHg 91%
    01:00 +13°C° 0.5 mm 2 mps 735 mmHg 91%
    02:00 +13°C° 1.5 mm 2 mps 735 mmHg 92%
    03:00 +13°C° 1.5 mm 2 mps 734 mmHg 92%
    04:00 +13°C° 1.5 mm 2 mps 734 mmHg 93%
    05:00 +13°C° 1.7 mm 2 mps 734 mmHg 92%
    06:00 +12°C° 1.7 mm 2 mps 734 mmHg 92%
    07:00 +12°C° 1.7 mm 2 mps 734 mmHg 92%
    08:00 +13°C° 1.4 mm 2 mps 735 mmHg 92%
    09:00 +13°C° 1.4 mm 2 mps 735 mmHg 91%
    10:00 +13°C° 1.4 mm 1 mps 735 mmHg 91%
    11:00 +13°C° 0.7 mm 1 mps 735 mmHg 90%
    12:00 +13°C° 0.7 mm 1 mps 736 mmHg 90%
    13:00 +13°C° 0.7 mm 1 mps 736 mmHg 89%
    14:00 +13°C° 0.6 mm 1 mps 736 mmHg 90%
    15:00 +13°C° 0.6 mm 1 mps 736 mmHg 92%
    16:00 +13°C° 0.6 mm 1 mps 737 mmHg 93%
    17:00 +12°C° 0.4 mm 1 mps 737 mmHg 94%
    18:00 +12°C° 0.4 mm 1 mps 738 mmHg 95%
    19:00 +12°C° 0.4 mm 1 mps 738 mmHg 95%
    20:00 +12°C° 0.3 mm 1 mps 738 mmHg 95%
    21:00 +12°C° 0.3 mm 1 mps 739 mmHg 95%
    22:00 +12°C° 0.3 mm 1 mps 739 mmHg 95%
    23:00 +12°C° 0.2 mm 1 mps 739 mmHg 94%

    22 November, Thursday

    Time Temperature Precipitation Wind Pressure Humidity
    00:00 +12°C° 0.2 mm 1 mps 739 mmHg 93%
    01:00 +12°C° 0.2 mm 1 mps 739 mmHg 93%
    02:00 +11°C° 0.1 mm 1 mps 739 mmHg 92%
    03:00 +11°C° 0.1 mm 1 mps 739 mmHg 92%
    04:00 +11°C° 0.1 mm 1 mps 739 mmHg 91%
    05:00 +11°C° 0 mm 1 mps 740 mmHg 91%
    06:00 +11°C° 0 mm 1 mps 740 mmHg 90%
    07:00 +11°C° 0 mm 1 mps 740 mmHg 89%
    08:00 +12°C° 0 mm 1 mps 740 mmHg 85%
    09:00 +13°C° 0 mm 1 mps 741 mmHg 80%
    10:00 +14°C° 0 mm 1 mps 741 mmHg 76%
    11:00 +15°C° 0 mm 1 mps 741 mmHg 74%
    12:00 +15°C° 0 mm 1 mps 741 mmHg 73%
    13:00 +16°C° 0 mm 1 mps 741 mmHg 71%
    14:00 +15°C° 0 mm 1 mps 741 mmHg 75%
    15:00 +14°C° 0 mm 1 mps 741 mmHg 79%
    16:00 +14°C° 0 mm 1 mps 741 mmHg 83%
    17:00 +13°C° 0 mm 1 mps 742 mmHg 84%
    18:00 +13°C° 0 mm 1 mps 742 mmHg 86%
    19:00 +12°C° 0 mm 1 mps 743 mmHg 87%
    20:00 +12°C° 0 mm 1 mps 743 mmHg 87%
    21:00 +12°C° 0 mm 1 mps 743 mmHg 87%
    22:00 +11°C° 0 mm 1 mps 744 mmHg 86%
    23:00 +11°C° 0 mm 1 mps 744 mmHg 86%

    23 November, Friday

    Time Temperature Precipitation Wind Pressure Humidity
    00:00 +11°C° 0 mm 1 mps 744 mmHg 86%
    01:00 +11°C° 0 mm 1 mps 744 mmHg 85%
    02:00 +11°C° 0 mm 1 mps 744 mmHg 85%
    03:00 +9°C° 0 mm 2 mps 744 mmHg 84%
    04:00 +9°C° 0 mm 2 mps 745 mmHg 84%
    05:00 +9°C° 0 mm 2 mps 745 mmHg 84%
    06:00 +9°C° 0 mm 2 mps 745 mmHg 83%
    07:00 +9°C° 0 mm 2 mps 746 mmHg 83%
    08:00 +10°C° 0 mm 2 mps 746 mmHg 78%
    09:00 +13°C° 0 mm 1 mps 746 mmHg 73%
    10:00 +14°C° 0 mm 1 mps 746 mmHg 67%
    11:00 +15°C° 0 mm 1 mps 746 mmHg 65%
    12:00 +15°C° 0 mm 1 mps 746 mmHg 63%
    13:00 +16°C° 0 mm 1 mps 746 mmHg 61%
    14:00 +15°C° 0 mm 1 mps 746 mmHg 66%
    15:00 +14°C° 0 mm 1 mps 746 mmHg 70%
    16:00 +13°C° 0 mm 1 mps 746 mmHg 74%
    17:00 +13°C° 0 mm 1 mps 746 mmHg 76%
    18:00 +12°C° 0 mm 1 mps 746 mmHg 78%
    19:00 +11°C° 0 mm 1 mps 746 mmHg 79%
    20:00 +11°C° 0 mm 1 mps 747 mmHg 79%
    21:00 +11°C° 0 mm 1 mps 747 mmHg 79%
    22:00 +11°C° 0 mm 1 mps 747 mmHg 79%
    23:00 +10°C° 0 mm 1 mps 747 mmHg 79%
    Show more